KLM085 SEQM-SEGU

Flight info

Callsign KLM085
Flight time 0h 31m
Altitude 22000
Route TEMOX
Aircraft B77W/H-SDE1E2E3FGHIJ2J3J4J5M1RWXYZ/LB1D1

Departure

Time 2026-04-26 15:07
Airport Mariscal Sucre International Airport (SEQM)

Arrival

Time 2026-04-26 15:39
Airport José Joaquín de Olmedo International Airport (SEGU)
Time Latitude Longitude Altitude Speed Heading
2026-04-26 14:39 -0.12281 -78.35790 7841 ft 0 kts 88°
2026-04-26 14:53 -0.12281 -78.35806 7847 ft 4 kts 99°
2026-04-26 14:53 -0.12272 -78.35831 7837 ft 4 kts 129°
2026-04-26 14:53 -0.12252 -78.35846 7848 ft 4 kts 169°
2026-04-26 14:54 -0.12244 -78.35847 7845 ft 0 kts 179°
2026-04-26 14:58 -0.12247 -78.35847 7840 ft 1 kts 179°
2026-04-26 14:58 -0.12260 -78.35847 7840 ft 2 kts 179°
2026-04-26 14:58 -0.12293 -78.35847 7844 ft 5 kts 179°
2026-04-26 14:59 -0.12333 -78.35846 7840 ft 6 kts 176°
2026-04-26 14:59 -0.12367 -78.35822 7839 ft 7 kts 110°
2026-04-26 14:59 -0.12368 -78.35774 7847 ft 7 kts 87°
2026-04-26 14:59 -0.12367 -78.35756 7847 ft 8 kts 87°
2026-04-26 15:00 -0.12361 -78.35664 7849 ft 8 kts 85°
2026-04-26 15:00 -0.12333 -78.35621 7849 ft 8 kts 18°
2026-04-26 15:00 -0.12267 -78.35621 7838 ft 11 kts 359°
2026-04-26 15:00 -0.12179 -78.35623 7835 ft 14 kts 359°
2026-04-26 15:01 -0.12064 -78.35627 7834 ft 19 kts 358°
2026-04-26 15:01 -0.11916 -78.35633 7830 ft 23 kts 358°
2026-04-26 15:01 -0.11752 -78.35640 7823 ft 24 kts 358°
2026-04-26 15:01 -0.11588 -78.35647 7820 ft 24 kts 358°
2026-04-26 15:02 -0.11423 -78.35654 7820 ft 24 kts 357°
2026-04-26 15:02 -0.11262 -78.35662 7815 ft 24 kts 357°
2026-04-26 15:02 -0.11097 -78.35670 7808 ft 24 kts 357°
2026-04-26 15:02 -0.10934 -78.35677 7802 ft 24 kts 357°
2026-04-26 15:03 -0.10769 -78.35685 7794 ft 24 kts 357°
2026-04-26 15:03 -0.10649 -78.35690 7776 ft 12 kts 357°
2026-04-26 15:03 -0.10590 -78.35678 7786 ft 6 kts 53°
2026-04-26 15:03 -0.10582 -78.35648 7781 ft 0 kts 86°
2026-04-26 15:05 -0.10582 -78.35646 7786 ft 2 kts 86°
2026-04-26 15:05 -0.10581 -78.35638 7782 ft 5 kts 86°
2026-04-26 15:05 -0.10576 -78.35554 7785 ft 7 kts 89°
2026-04-26 15:05 -0.10614 -78.35523 7781 ft 7 kts 157°
2026-04-26 15:06 -0.10674 -78.35514 7789 ft 16 kts 174°
2026-04-26 15:06 -0.10996 -78.35498 7805 ft 80 kts 177°
2026-04-26 15:06 -0.11762 -78.35468 7824 ft 139 kts 178°
2026-04-26 15:06 -0.12898 -78.35422 7878 ft 184 kts 178°
2026-04-26 15:07 -0.15548 -78.35809 8617 ft 200 kts 221°
2026-04-26 15:07 -0.16288 -78.36964 9166 ft 197 kts 249°
2026-04-26 15:07 -0.16761 -78.38253 9761 ft 199 kts 246°
2026-04-26 15:08 -0.17311 -78.39565 10115 ft 216 kts 245°
2026-04-26 15:08 -0.17942 -78.41013 10319 ft 243 kts 244°
2026-04-26 15:08 -0.18711 -78.42609 10626 ft 267 kts 243°
2026-04-26 15:08 -0.19584 -78.44332 11037 ft 289 kts 242°
2026-04-26 15:09 -0.20572 -78.46199 11328 ft 319 kts 241°
2026-04-26 15:09 -0.21687 -78.48243 11553 ft 350 kts 241°
2026-04-26 15:09 -0.22492 -78.49691 11700 ft 370 kts 240°
2026-04-26 15:09 -0.24231 -78.52775 12619 ft 389 kts 240°
2026-04-26 15:10 -0.25119 -78.54344 13243 ft 393 kts 240°
2026-04-26 15:10 -0.26019 -78.55925 13893 ft 397 kts 240°
2026-04-26 15:10 -0.28313 -78.59942 15544 ft 404 kts 239°
2026-04-26 15:10 -0.29715 -78.62392 16466 ft 409 kts 239°
2026-04-26 15:11 -0.30671 -78.64066 17046 ft 413 kts 240°
2026-04-26 15:11 -0.32105 -78.66582 17832 ft 419 kts 239°
2026-04-26 15:11 -0.33558 -78.69125 18680 ft 423 kts 239°
2026-04-26 15:11 -0.35007 -78.71662 19482 ft 429 kts 239°
2026-04-26 15:12 -0.36494 -78.74264 20211 ft 434 kts 239°
2026-04-26 15:12 -0.38002 -78.76902 20905 ft 440 kts 240°
2026-04-26 15:12 -0.39530 -78.79578 21564 ft 446 kts 240°
2026-04-26 15:12 -0.41076 -78.82286 22198 ft 452 kts 240°
2026-04-26 15:13 -0.42648 -78.85040 22418 ft 463 kts 240°
2026-04-26 15:13 -0.44269 -78.87879 22409 ft 475 kts 240°
2026-04-26 15:13 -0.45913 -78.90758 22416 ft 478 kts 240°
2026-04-26 15:13 -0.47560 -78.93642 22408 ft 478 kts 240°
2026-04-26 15:14 -0.49185 -78.96486 22407 ft 477 kts 240°
2026-04-26 15:14 -0.50828 -78.99363 22401 ft 476 kts 240°
2026-04-26 15:14 -0.52468 -79.02235 22393 ft 477 kts 240°
2026-04-26 15:14 -0.54113 -79.05116 22393 ft 477 kts 240°
2026-04-26 15:15 -0.55753 -79.07987 22404 ft 476 kts 240°
2026-04-26 15:15 -0.57591 -79.10738 22378 ft 477 kts 231°
2026-04-26 15:15 -0.59880 -79.13139 22387 ft 477 kts 221°
2026-04-26 15:15 -0.62488 -79.15181 22382 ft 477 kts 213°
2026-04-26 15:16 -0.65317 -79.16825 22393 ft 477 kts 208°
2026-04-26 15:16 -0.68226 -79.18426 22380 ft 478 kts 208°
2026-04-26 15:16 -0.71145 -79.20030 22386 ft 478 kts 208°
2026-04-26 15:16 -0.74055 -79.21641 22381 ft 479 kts 208°
2026-04-26 15:17 -0.76959 -79.23263 22377 ft 479 kts 209°
2026-04-26 15:17 -0.78884 -79.24345 22373 ft 479 kts 209°
2026-04-26 15:17 -0.82757 -79.26533 22376 ft 478 kts 209°
2026-04-26 15:17 -0.85651 -79.28173 22372 ft 478 kts 209°
2026-04-26 15:18 -0.88543 -79.29814 22367 ft 478 kts 209°
2026-04-26 15:18 -0.91399 -79.31437 22374 ft 478 kts 209°
2026-04-26 15:18 -0.94287 -79.33074 22371 ft 479 kts 209°
2026-04-26 15:18 -0.97191 -79.34720 22350 ft 481 kts 209°
2026-04-26 15:19 -1.00106 -79.36373 22304 ft 483 kts 209°
2026-04-26 15:19 -1.03028 -79.38028 22264 ft 482 kts 209°
2026-04-26 15:19 -1.05938 -79.39676 22252 ft 479 kts 209°
2026-04-26 15:19 -1.08827 -79.41320 22243 ft 477 kts 209°
2026-04-26 15:20 -1.11703 -79.42944 22213 ft 476 kts 209°
2026-04-26 15:20 -1.14577 -79.44572 22211 ft 475 kts 209°
2026-04-26 15:20 -1.17418 -79.46181 22217 ft 476 kts 209°
2026-04-26 15:20 -1.20301 -79.47816 22201 ft 477 kts 209°
2026-04-26 15:21 -1.23186 -79.49451 22194 ft 477 kts 209°
2026-04-26 15:21 -1.26081 -79.51091 22188 ft 480 kts 209°
2026-04-26 15:21 -1.28985 -79.52745 22168 ft 478 kts 209°
2026-04-26 15:21 -1.31829 -79.54360 22147 ft 462 kts 208°
2026-04-26 15:22 -1.34607 -79.55932 21714 ft 459 kts 208°
2026-04-26 15:22 -1.37374 -79.57499 21064 ft 455 kts 208°
2026-04-26 15:22 -1.40110 -79.59050 20416 ft 450 kts 209°
2026-04-26 15:22 -1.42813 -79.60586 19759 ft 445 kts 209°
2026-04-26 15:23 -1.45385 -79.62044 19095 ft 415 kts 209°
2026-04-26 15:23 -1.47857 -79.63450 18530 ft 406 kts 208°
2026-04-26 15:23 -1.50313 -79.64836 17941 ft 402 kts 208°
2026-04-26 15:23 -1.52767 -79.66183 17356 ft 403 kts 208°
2026-04-26 15:24 -1.55231 -79.67509 16760 ft 402 kts 207°
2026-04-26 15:24 -1.57688 -79.68828 16161 ft 400 kts 207°
2026-04-26 15:24 -1.60133 -79.70144 15574 ft 399 kts 208°
2026-04-26 15:24 -1.62570 -79.71460 14984 ft 397 kts 208°
2026-04-26 15:25 -1.64994 -79.72771 14392 ft 395 kts 208°
2026-04-26 15:25 -1.67375 -79.74058 13797 ft 394 kts 208°
2026-04-26 15:25 -1.69775 -79.75359 13229 ft 392 kts 208°
2026-04-26 15:25 -1.72164 -79.76655 12638 ft 390 kts 208°
2026-04-26 15:26 -1.74540 -79.77942 12057 ft 387 kts 208°
2026-04-26 15:26 -1.76905 -79.79223 11485 ft 385 kts 208°
2026-04-26 15:26 -1.79256 -79.80497 10988 ft 381 kts 208°
2026-04-26 15:26 -1.81518 -79.81723 10818 ft 356 kts 208°
2026-04-26 15:27 -1.83613 -79.82859 10642 ft 329 kts 208°
2026-04-26 15:27 -1.85552 -79.83909 10501 ft 305 kts 208°
2026-04-26 15:27 -1.87351 -79.84884 10367 ft 284 kts 208°
2026-04-26 15:27 -1.89011 -79.85784 10252 ft 268 kts 208°
2026-04-26 15:28 -1.90638 -79.86665 10165 ft 268 kts 208°
2026-04-26 15:28 -1.92322 -79.87576 10083 ft 282 kts 208°
2026-04-26 15:28 -1.94075 -79.88524 9843 ft 290 kts 208°
2026-04-26 15:28 -1.95854 -79.89488 9507 ft 291 kts 208°
2026-04-26 15:29 -1.97631 -79.90453 9178 ft 290 kts 208°
2026-04-26 15:29 -1.99402 -79.91413 8846 ft 288 kts 208°
2026-04-26 15:29 -2.02889 -79.93301 8190 ft 286 kts 208°
2026-04-26 15:30 -2.06278 -79.95140 7979 ft 267 kts 208°
2026-04-26 15:30 -2.07894 -79.96015 7636 ft 266 kts 208°
2026-04-26 15:30 -2.09549 -79.96911 7152 ft 273 kts 208°
2026-04-26 15:31 -2.11212 -79.97812 6764 ft 267 kts 208°
2026-04-26 15:31 -2.14270 -79.99471 6143 ft 234 kts 209°
2026-04-26 15:31 -2.15644 -80.00214 5891 ft 217 kts 209°
2026-04-26 15:32 -2.17916 -80.01446 5520 ft 231 kts 209°
2026-04-26 15:32 -2.19793 -80.02464 5134 ft 232 kts 209°
2026-04-26 15:32 -2.21206 -80.03230 4842 ft 230 kts 208°
2026-04-26 15:33 -2.22609 -80.03990 4564 ft 228 kts 209°
2026-04-26 15:33 -2.24000 -80.04738 4288 ft 224 kts 205°
2026-04-26 15:33 -2.25493 -80.05013 3985 ft 218 kts 170°
2026-04-26 15:33 -2.26866 -80.04390 3821 ft 224 kts 141°
2026-04-26 15:34 -2.27878 -80.03199 3610 ft 232 kts 123°
2026-04-26 15:34 -2.28703 -80.01803 3387 ft 234 kts 120°
2026-04-26 15:34 -2.29494 -80.00400 3152 ft 231 kts 120°
2026-04-26 15:34 -2.30173 -79.98970 2907 ft 225 kts 102°
2026-04-26 15:35 -2.30076 -79.97456 2711 ft 218 kts 67°
2026-04-26 15:35 -2.29243 -79.96228 2586 ft 215 kts 43°
2026-04-26 15:35 -2.28014 -79.95359 2364 ft 216 kts 30°
2026-04-26 15:35 -2.26731 -79.94634 2144 ft 208 kts 28°
2026-04-26 15:36 -2.25498 -79.93941 1920 ft 198 kts 29°
2026-04-26 15:36 -2.24314 -79.93269 1728 ft 198 kts 29°
2026-04-26 15:36 -2.23113 -79.92596 1475 ft 194 kts 29°
2026-04-26 15:36 -2.21999 -79.91965 1251 ft 179 kts 30°
2026-04-26 15:37 -2.20977 -79.91379 1010 ft 159 kts 30°
2026-04-26 15:37 -2.20043 -79.90840 844 ft 153 kts 30°
2026-04-26 15:37 -2.19103 -79.90312 572 ft 157 kts 29°
2026-04-26 15:37 -2.18177 -79.89760 302 ft 150 kts 31°
2026-04-26 15:38 -2.17272 -79.89243 149 ft 150 kts 29°
2026-04-26 15:38 -2.16365 -79.88718 32 ft 149 kts 30°
2026-04-26 15:38 -2.15584 -79.88267 29 ft 110 kts 30°
2026-04-26 15:38 -2.15080 -79.87978 27 ft 58 kts 30°
2026-04-26 15:39 -2.14874 -79.87864 27 ft 7 kts
2026-04-26 15:39 -2.14837 -79.87897 27 ft 8 kts 301°
2026-04-26 15:39 -2.14786 -79.87911 27 ft 9 kts
2026-04-26 15:39 -2.14747 -79.87897 27 ft 9 kts 25°
2026-04-26 15:40 -2.14672 -79.87880 26 ft 8 kts 316°
2026-04-26 15:40 -2.14682 -79.87932 26 ft 8 kts 232°
2026-04-26 15:40 -2.14727 -79.87969 26 ft 9 kts 214°
2026-04-26 15:40 -2.14780 -79.88003 27 ft 9 kts 211°
2026-04-26 15:41 -2.14832 -79.88041 27 ft 10 kts 235°
2026-04-26 15:41 -2.14819 -79.88107 26 ft 11 kts 295°
2026-04-26 15:41 -2.14793 -79.88177 26 ft 11 kts 271°
2026-04-26 15:41 -2.14844 -79.88230 26 ft 11 kts 211°
2026-04-26 15:42 -2.14906 -79.88278 26 ft 8 kts 249°
2026-04-26 15:42 -2.14900 -79.88332 26 ft 8 kts 290°
2026-04-26 15:42 -2.14893 -79.88346 26 ft 0 kts 296°